| time (UTC) | temp F | wind direction | speed MPH | gust MPH | rain 1hr in | rain 24hr in | rain mn in | humidity % | barometer mb |
| 20260904204041 | 85 | 311 | 4.0 | 9.0 | 0.00 | 0.02 | 0.00 | 71 | 1013.1 |
| 20260904203544 | 85 | 0 | 0.0 | 4.0 | 0.00 | 0.02 | 0.00 | 72 | 1013.0 |
| 20260904203101 | 84 | 187 | 0.0 | 5.0 | 0.00 | 0.02 | 0.00 | 71 | 1012.8 |
| 20260904202540 | 84 | 202 | 1.0 | 5.0 | 0.00 | 0.02 | 0.00 | 75 | 1012.7 |
| 20260904202041 | 84 | 207 | 2.0 | 4.0 | 0.00 | 0.02 | 0.00 | 74 | 1012.8 |
| 20260904201558 | 83 | 208 | 1.0 | 4.0 | 0.00 | 0.02 | 0.00 | 72 | 1012.8 |
| 20260904201037 | 84 | 208 | 2.0 | 5.0 | 0.00 | 0.02 | 0.00 | 72 | 1012.7 |
| 20260904200540 | 84 | 0 | 1.0 | 7.0 | 0.00 | 0.02 | 0.00 | 71 | 1012.8 |
| 20260904195541 | 84 | 196 | 2.0 | 5.0 | 0.00 | 0.02 | 0.00 | 72 | 1013.0 |
| 20260904195040 | 84 | 189 | 2.0 | 5.0 | 0.00 | 0.02 | 0.00 | 71 | 1013.0 |
| 20260904194603 | 84 | 216 | 2.0 | 7.0 | 0.00 | 0.02 | 0.00 | 71 | 1013.1 |
| 20260904194040 | 84 | 245 | 2.0 | 7.0 | 0.00 | 0.02 | 0.00 | 70 | 1013.2 |
| 20260904193541 | 84 | 235 | 3.0 | 8.0 | 0.00 | 0.02 | 0.00 | 73 | 1013.4 |
| 20260904193056 | 83 | 263 | 2.0 | 9.0 | 0.00 | 0.02 | 0.00 | 72 | 1013.5 |
| 20260904192541 | 83 | 260 | 4.0 | 9.0 | 0.00 | 0.02 | 0.00 | 72 | 1013.6 |
| 20260904192040 | 83 | 254 | 4.0 | 9.0 | 0.00 | 0.02 | 0.00 | 72 | 1013.6 |
| 20260904191551 | 83 | 321 | 5.0 | 9.0 | 0.00 | 0.02 | 0.00 | 72 | 1013.4 |
| 20260904191041 | 83 | 317 | 5.0 | 9.0 | 0.00 | 0.02 | 0.00 | 71 | 1013.6 |
| 20260904190541 | 84 | 288 | 5.0 | 9.0 | 0.00 | 0.02 | 0.00 | 70 | 1013.4 |
| 20260904185542 | 84 | 284 | 3.0 | 9.0 | 0.00 | 0.02 | 0.00 | 71 | 1013.2 |
| 20260904185041 | 84 | 298 | 2.0 | 12.0 | 0.00 | 0.02 | 0.00 | 73 | 1013.5 |
| 20260904184552 | 84 | 298 | 7.0 | 12.0 | 0.00 | 0.02 | 0.00 | 71 | 1013.9 |
| 20260904184041 | 84 | 348 | 3.0 | 7.0 | 0.00 | 0.02 | 0.00 | 70 | 1013.9 |
| 20260904183542 | 84 | 306 | 1.0 | 8.0 | 0.00 | 0.02 | 0.00 | 72 | 1014.0 |
| 20260904183106 | 84 | 272 | 3.0 | 9.0 | 0.00 | 0.02 | 0.00 | 72 | 1014.1 |
| 20260904182540 | 84 | 286 | 5.0 | 12.0 | 0.00 | 0.02 | 0.00 | 69 | 1014.2 |
| 20260904182040 | 84 | 236 | 6.0 | 12.0 | 0.00 | 0.02 | 0.00 | 72 | 1014.2 |
| 20260904181556 | 84 | 257 | 3.0 | 8.0 | 0.00 | 0.02 | 0.00 | 72 | 1014.2 |
| 20260904181041 | 83 | 257 | 5.0 | 8.0 | 0.00 | 0.02 | 0.00 | 71 | 1014.3 |
| 20260904180541 | 83 | 327 | 3.0 | 14.0 | 0.00 | 0.02 | 0.00 | 71 | 1014.3 |
| 20260904180058 | 83 | 320 | 4.0 | 14.0 | 0.00 | 0.02 | 0.00 | 73 | 1014.4 |
| 20260904175539 | 83 | 272 | 9.0 | 13.0 | 0.00 | 0.02 | 0.00 | 72 | 1014.5 |
| 20260904175040 | 83 | 232 | 5.0 | 13.0 | 0.00 | 0.02 | 0.00 | 70 | 1014.4 |
| 20260904174606 | 83 | 271 | 5.0 | 14.0 | 0.00 | 0.02 | 0.00 | 73 | 1014.4 |
| 20260904174041 | 83 | 257 | 7.0 | 14.0 | 0.00 | 0.02 | 0.00 | 71 | 1014.3 |
| 20260904173541 | 83 | 293 | 4.0 | 12.0 | 0.00 | 0.02 | 0.00 | 73 | 1014.4 |
| 20260904173103 | 83 | 311 | 5.0 | 14.0 | 0.00 | 0.02 | 0.00 | 72 | 1014.4 |
| 20260904172540 | 82 | 244 | 7.0 | 14.0 | 0.00 | 0.02 | 0.00 | 71 | 1014.5 |
| 20260904172040 | 82 | 315 | 5.0 | 12.0 | 0.00 | 0.02 | 0.00 | 71 | 1014.4 |
| 20260904171604 | 82 | 267 | 5.0 | 13.0 | 0.00 | 0.02 | 0.00 | 71 | 1014.5 |
| 20260904171039 | 82 | 247 | 5.0 | 13.0 | 0.00 | 0.02 | 0.00 | 71 | 1014.4 |
| 20260904170540 | 82 | 290 | 9.0 | 13.0 | 0.00 | 0.02 | 0.00 | 70 | 1014.4 |
| 20260904170057 | 82 | 291 | 6.0 | 12.0 | 0.00 | 0.02 | 0.00 | 70 | 1014.4 |
| 20260904165540 | 82 | 255 | 4.0 | 12.0 | 0.00 | 0.02 | 0.00 | 73 | 1014.5 |
| 20260904165041 | 82 | 289 | 6.0 | 11.0 | 0.00 | 0.02 | 0.00 | 68 | 1014.6 |
| 20260904164611 | 82 | 5 | 5.0 | 11.0 | 0.00 | 0.02 | 0.00 | 72 | 1014.6 |
| 20260904164041 | 82 | 218 | 3.0 | 11.0 | 0.00 | 0.02 | 0.00 | 71 | 1014.6 |
| 20260904163540 | 82 | 277 | 5.0 | 15.0 | 0.00 | 0.02 | 0.00 | 71 | 1014.6 |
| 20260904163050 | 81 | 294 | 3.0 | 15.0 | 0.00 | 0.02 | 0.00 | 72 | 1014.7 |
| 20260904162540 | 81 | 248 | 9.0 | 15.0 | 0.00 | 0.02 | 0.00 | 71 | 1015.0 |
| 20260904162042 | 82 | 294 | 5.0 | 14.0 | 0.00 | 0.02 | 0.00 | 72 | 1014.9 |
| 20260904161610 | 81 | 281 | 1.0 | 10.0 | 0.00 | 0.02 | 0.00 | 69 | 1015.0 |
| 20260904161040 | 81 | 307 | 1.0 | 6.0 | 0.00 | 0.02 | 0.00 | 74 | 1014.9 |
| 20260904160544 | 81 | 278 | 2.0 | 9.0 | 0.00 | 0.02 | 0.00 | 72 | 1015.0 |
| 20260904160100 | 81 | 271 | 4.0 | 9.0 | 0.00 | 0.02 | 0.00 | 71 | 1014.9 |
| 20260904155540 | 81 | 300 | 4.0 | 8.0 | 0.00 | 0.02 | 0.00 | 72 | 1015.0 |
| 20260904155039 | 81 | 243 | 3.0 | 8.0 | 0.00 | 0.02 | 0.00 | 72 | 1015.1 |
| 20260904154554 | 81 | 223 | 4.0 | 11.0 | 0.00 | 0.02 | 0.00 | 75 | 1015.1 |
| 20260904154041 | 80 | 207 | 4.0 | 11.0 | 0.00 | 0.02 | 0.00 | 73 | 1015.1 |
| 20260904153540 | 80 | 200 | 3.0 | 8.0 | 0.00 | 0.02 | 0.00 | 72 | 1015.2 |
| 20260904153110 | 80 | 222 | 3.0 | 8.0 | 0.00 | 0.02 | 0.00 | 73 | 1015.2 |
| 20260904152541 | 80 | 220 | 3.0 | 8.0 | 0.00 | 0.02 | 0.00 | 73 | 1015.1 |
| 20260904152040 | 80 | 225 | 3.0 | 6.0 | 0.00 | 0.02 | 0.00 | 77 | 1015.1 |
| 20260904151550 | 79 | 182 | 2.0 | 4.0 | 0.00 | 0.02 | 0.00 | 73 | 1015.1 |
| 20260904151044 | 79 | 327 | 0.0 | 8.0 | 0.00 | 0.02 | 0.00 | 74 | 1015.1 |
| 20260904150540 | 79 | 290 | 3.0 | 8.0 | 0.00 | 0.02 | 0.00 | 75 | 1015.2 |
| 20260904150100 | 79 | 253 | 2.0 | 9.0 | 0.00 | 0.02 | 0.00 | 75 | 1015.3 |
| 20260904145542 | 78 | 333 | 3.0 | 9.0 | 0.00 | 0.14 | 0.00 | 78 | 1015.3 |
| 20260904145041 | 78 | 281 | 5.0 | 10.0 | 0.00 | 0.14 | 0.00 | 76 | 1015.3 |
| 20260904144554 | 78 | 301 | 2.0 | 10.0 | 0.00 | 0.14 | 0.00 | 77 | 1015.2 |
| 20260904144041 | 78 | 284 | 3.0 | 11.0 | 0.00 | 0.14 | 0.00 | 77 | 1015.2 |
| 20260904143541 | 78 | 284 | 7.0 | 11.0 | 0.00 | 0.14 | 0.00 | 77 | 1015.2 |
| 20260904143102 | 78 | 318 | 2.0 | 9.0 | 0.00 | 0.14 | 0.00 | 76 | 1015.2 |
| 20260904142542 | 78 | 0 | 0.0 | 4.0 | 0.00 | 0.14 | 0.00 | 75 | 1015.2 |
| 20260904142041 | 77 | 0 | 0.0 | 6.0 | 0.00 | 0.14 | 0.00 | 76 | 1015.3 |
| 20260904141550 | 77 | 0 | 2.0 | 6.0 | 0.00 | 0.14 | 0.00 | 76 | 1015.2 |
| 20260904141038 | 77 | 340 | 2.0 | 6.0 | 0.00 | 0.14 | 0.00 | 77 | 1015.2 |
| 20260904140541 | 76 | 336 | 3.0 | 6.0 | 0.00 | 0.14 | 0.00 | 80 | 1015.3 |
| 20260904135541 | 75 | 331 | 5.0 | 10.0 | 0.00 | 0.14 | 0.00 | 78 | 1015.3 |
| 20260904135038 | 76 | 331 | 7.0 | 10.0 | 0.00 | 0.14 | 0.00 | 78 | 1015.2 |
| 20260904134554 | 76 | 345 | 5.0 | 14.0 | 0.00 | 0.14 | 0.00 | 79 | 1015.3 |
| 20260904134040 | 75 | 307 | 8.0 | 14.0 | 0.00 | 0.14 | 0.00 | 80 | 1015.2 |
| 20260904133537 | 76 | 304 | 6.0 | 14.0 | 0.00 | 0.14 | 0.00 | 80 | 1015.4 |
| 20260904133054 | 76 | 281 | 6.0 | 10.0 | 0.00 | 0.14 | 0.00 | 79 | 1015.3 |
| 20260904132540 | 76 | 310 | 4.0 | 10.0 | 0.00 | 0.14 | 0.00 | 79 | 1015.3 |
| 20260904132040 | 76 | 327 | 4.0 | 9.0 | 0.00 | 0.14 | 0.00 | 79 | 1015.3 |
| 20260904131636 | 76 | 258 | 2.0 | 5.0 | 0.00 | 0.14 | 0.00 | 79 | 1015.3 |
| 20260904131040 | 76 | 0 | 3.0 | 5.0 | 0.00 | 0.14 | 0.00 | 78 | 1015.3 |
| 20260904130538 | 76 | 340 | 0.0 | 3.0 | 0.00 | 0.14 | 0.00 | 80 | 1015.3 |
| 20260904130059 | 75 | 0 | 0.0 | 4.0 | 0.00 | 0.14 | 0.00 | 82 | 1015.2 |
| 20260904125539 | 75 | 340 | 1.0 | 5.0 | 0.00 | 0.15 | 0.00 | 80 | 1015.3 |
| 20260904125040 | 75 | 340 | 2.0 | 10.0 | 0.00 | 0.15 | 0.00 | 80 | 1015.3 |
| 20260904124553 | 75 | 330 | 5.0 | 10.0 | 0.00 | 0.15 | 0.00 | 81 | 1015.4 |
| 20260904124041 | 75 | 336 | 1.0 | 5.0 | 0.00 | 0.15 | 0.00 | 80 | 1015.4 |
| 20260904123537 | 75 | 0 | 0.0 | 9.0 | 0.00 | 0.15 | 0.00 | 83 | 1015.3 |
| 20260904123106 | 75 | 13 | 3.0 | 9.0 | 0.00 | 0.15 | 0.00 | 81 | 1015.3 |
| 20260904122537 | 75 | 360 | 4.0 | 9.0 | 0.00 | 0.15 | 0.00 | 81 | 1015.2 |
| 20260904122038 | 75 | 0 | 1.0 | 4.0 | 0.00 | 0.15 | 0.00 | 81 | 1015.3 |
| 20260904121604 | 75 | 24 | 1.0 | 3.0 | 0.00 | 0.15 | 0.00 | 81 | 1015.2 |
| 20260904121037 | 74 | 69 | 0.0 | 6.0 | 0.00 | 0.15 | 0.00 | 81 | 1015.1 |
| 20260904120539 | 73 | 61 | 1.0 | 6.0 | 0.00 | 0.15 | 0.00 | 83 | 1015.2 |
| 20260904120057 | 73 | 58 | 4.0 | 6.0 | 0.00 | 0.15 | 0.00 | 84 | 1015.2 |
| 20260904115538 | 72 | 71 | 2.0 | 5.0 | 0.00 | 0.18 | 0.00 | 84 | 1015.1 |
| 20260904115041 | 72 | 50 | 1.0 | 6.0 | 0.00 | 0.18 | 0.00 | 84 | 1015.0 |
| 20260904114604 | 72 | 54 | 3.0 | 8.0 | 0.00 | 0.18 | 0.00 | 83 | 1015.0 |
| 20260904114042 | 72 | 75 | 4.0 | 9.0 | 0.00 | 0.18 | 0.00 | 83 | 1015.0 |
| 20260904113538 | 72 | 77 | 4.0 | 9.0 | 0.00 | 0.18 | 0.00 | 83 | 1014.9 |
| 20260904113105 | 72 | 69 | 6.0 | 11.0 | 0.00 | 0.18 | 0.00 | 83 | 1014.7 |
| 20260904112541 | 72 | 84 | 4.0 | 11.0 | 0.00 | 0.18 | 0.00 | 83 | 1015.0 |
| 20260904112038 | 72 | 42 | 5.0 | 9.0 | 0.00 | 0.18 | 0.00 | 83 | 1014.9 |
| 20260904111555 | 72 | 100 | 4.0 | 8.0 | 0.00 | 0.18 | 0.00 | 83 | 1014.9 |
| 20260904111038 | 73 | 88 | 1.0 | 7.0 | 0.00 | 0.18 | 0.00 | 82 | 1014.7 |
| 20260904110538 | 73 | 167 | 1.0 | 4.0 | 0.00 | 0.18 | 0.00 | 82 | 1014.6 |
| 20260904105538 | 73 | 263 | 6.0 | 13.0 | 0.00 | 0.20 | 0.00 | 81 | 1014.4 |
| 20260904105038 | 73 | 279 | 9.0 | 13.0 | 0.00 | 0.20 | 0.00 | 82 | 1014.3 |
| 20260904104604 | 73 | 315 | 7.0 | 14.0 | 0.00 | 0.20 | 0.00 | 81 | 1014.2 |
| 20260904104039 | 72 | 283 | 6.0 | 16.0 | 0.00 | 0.20 | 0.00 | 82 | 1014.3 |
| 20260904103537 | 72 | 290 | 10.0 | 16.0 | 0.00 | 0.20 | 0.00 | 83 | 1014.2 |
| 20260904103111 | 72 | 297 | 7.0 | 12.0 | 0.00 | 0.20 | 0.00 | 84 | 1014.1 |
| 20260904102541 | 71 | 339 | 5.0 | 10.0 | 0.00 | 0.20 | 0.00 | 85 | 1014.1 |
| 20260904102041 | 71 | 336 | 3.0 | 11.0 | 0.00 | 0.20 | 0.00 | 85 | 1014.1 |
| 20260904101601 | 71 | 343 | 5.0 | 11.0 | 0.00 | 0.20 | 0.00 | 85 | 1014.1 |
| 20260904101041 | 71 | 309 | 4.0 | 11.0 | 0.00 | 0.20 | 0.00 | 85 | 1014.0 |
| 20260904100538 | 71 | 309 | 6.0 | 11.0 | 0.00 | 0.20 | 0.00 | 85 | 1014.1 |
| 20260904100049 | 71 | 281 | 6.0 | 10.0 | 0.00 | 0.20 | 0.00 | 85 | 1014.2 |
| 20260904095541 | 71 | 317 | 7.0 | 11.0 | 0.00 | 0.44 | 0.00 | 85 | 1014.2 |
| 20260904095038 | 71 | 275 | 6.0 | 13.0 | 0.00 | 0.44 | 0.00 | 86 | 1014.3 |
| 20260904094557 | 71 | 300 | 7.0 | 13.0 | 0.00 | 0.44 | 0.00 | 85 | 1014.2 |
| 20260904094037 | 72 | 281 | 5.0 | 9.0 | 0.00 | 0.44 | 0.00 | 85 | 1014.3 |
| 20260904093541 | 72 | 280 | 6.0 | 9.0 | 0.00 | 0.44 | 0.00 | 85 | 1014.4 |
| 20260904093055 | 72 | 265 | 5.0 | 9.0 | 0.00 | 0.44 | 0.00 | 85 | 1014.3 |
| 20260904092540 | 71 | 302 | 2.0 | 7.0 | 0.00 | 0.44 | 0.00 | 85 | 1014.3 |
| 20260904092041 | 71 | 292 | 0.0 | 4.0 | 0.00 | 0.44 | 0.00 | 85 | 1014.4 |
| 20260904091610 | 71 | 0 | 0.0 | 4.0 | 0.00 | 0.44 | 0.00 | 85 | 1014.2 |
| 20260904091043 | 72 | 0 | 1.0 | 10.0 | 0.00 | 0.44 | 0.00 | 85 | 1014.1 |
| 20260904090545 | 72 | 257 | 2.0 | 15.0 | 0.00 | 0.44 | 0.00 | 85 | 1014.2 |
| 20260904090056 | 72 | 287 | 8.0 | 15.0 | 0.00 | 0.44 | 0.00 | 86 | 1014.1 |
| 20260904085542 | 71 | 294 | 6.0 | 14.0 | 0.00 | 0.44 | 0.00 | 86 | 1013.9 |
| 20260904085044 | 71 | 246 | 7.0 | 14.0 | 0.00 | 0.44 | 0.00 | 86 | 1013.9 |
| 20260904084557 | 71 | 296 | 8.0 | 14.0 | 0.00 | 0.44 | 0.00 | 87 | 1014.1 |
| 20260904084042 | 71 | 311 | 4.0 | 7.0 | 0.00 | 0.44 | 0.00 | 88 | 1014.0 |
| 20260904083543 | 70 | 280 | 2.0 | 4.0 | 0.00 | 0.44 | 0.00 | 88 | 1014.1 |
| 20260904083111 | 70 | 270 | 0.0 | 2.0 | 0.00 | 0.44 | 0.00 | 88 | 1014.1 |
| 20260904082542 | 70 | 234 | 0.0 | 5.0 | 0.00 | 0.44 | 0.00 | 88 | 1014.1 |
| 20260904082043 | 70 | 232 | 0.0 | 7.0 | 0.00 | 0.44 | 0.00 | 88 | 1014.0 |
| 20260904081554 | 70 | 242 | 2.0 | 7.0 | 0.00 | 0.44 | 0.00 | 88 | 1014.0 |
| 20260904081042 | 70 | 254 | 2.0 | 7.0 | 0.00 | 0.44 | 0.00 | 88 | 1014.0 |
| 20260904080542 | 70 | 267 | 1.0 | 3.0 | 0.00 | 0.44 | 0.00 | 88 | 1014.0 |
| 20260904080056 | 70 | 0 | 0.0 | 2.0 | 0.00 | 0.44 | 0.00 | 88 | 1013.9 |
| 20260904075543 | 70 | 90 | 0.0 | 3.0 | 0.00 | 0.44 | 0.00 | 88 | 1014.0 |
| 20260904075046 | 70 | 0 | 0.0 | 3.0 | 0.00 | 0.44 | 0.00 | 87 | 1013.9 |
| 20260904074610 | 70 | 0 | 0.0 | 4.0 | 0.00 | 0.44 | 0.00 | 87 | 1013.8 |
| 20260904074042 | 70 | 91 | 1.0 | 6.0 | 0.00 | 0.44 | 0.00 | 87 | 1013.8 |
| 20260904073542 | 70 | 87 | 2.0 | 6.0 | 0.00 | 0.44 | 0.00 | 86 | 1013.8 |
| 20260904073057 | 70 | 84 | 3.0 | 6.0 | 0.00 | 0.44 | 0.00 | 86 | 1013.9 |
| 20260904072541 | 71 | 80 | 0.0 | 5.0 | 0.00 | 0.44 | 0.00 | 86 | 1013.8 |
| 20260904072043 | 71 | 133 | 0.0 | 6.0 | 0.00 | 0.44 | 0.00 | 85 | 1013.7 |
| 20260904071606 | 71 | 171 | 2.0 | 6.0 | 0.00 | 0.44 | 0.00 | 85 | 1013.6 |
| 20260904071043 | 71 | 0 | 0.0 | 7.0 | 0.00 | 0.44 | 0.00 | 85 | 1013.6 |
| 20260904070542 | 71 | 0 | 1.0 | 8.0 | 0.00 | 0.44 | 0.00 | 85 | 1013.5 |
| 20260904070129 | 71 | 175 | 2.0 | 8.0 | 0.00 | 0.44 | 0.00 | 84 | 1013.6 |
| 20260904065542 | 71 | 171 | 3.0 | 12.0 | 0.00 | 0.44 | 0.00 | 84 | 1013.4 |
| 20260904065044 | 71 | 211 | 7.0 | 12.0 | 0.00 | 0.44 | 0.00 | 84 | 1013.4 |
| 20260904064559 | 71 | 193 | 3.0 | 8.0 | 0.00 | 0.44 | 0.00 | 83 | 1013.2 |
| 20260904064043 | 71 | 232 | 1.0 | 7.0 | 0.00 | 0.44 | 0.00 | 84 | 1013.1 |
| 20260904063543 | 71 | 0 | 3.0 | 13.0 | 0.00 | 0.44 | 0.00 | 84 | 1012.8 |
| 20260904063103 | 71 | 266 | 5.0 | 13.0 | 0.00 | 0.44 | 0.00 | 84 | 1012.7 |
| 20260904062543 | 71 | 267 | 2.0 | 9.0 | 0.00 | 0.44 | 0.00 | 84 | 1012.5 |
| 20260904062042 | 70 | 257 | 4.0 | 9.0 | 0.00 | 0.44 | 0.00 | 85 | 1012.6 |
| 20260904061614 | 71 | 149 | 4.0 | 9.0 | 0.00 | 0.44 | 0.00 | 85 | 1012.6 |
| 20260904061043 | 71 | 0 | 4.0 | 11.0 | 0.00 | 0.44 | 0.00 | 84 | 1012.4 |
| 20260904060542 | 71 | 185 | 3.0 | 11.0 | 0.00 | 0.44 | 0.00 | 84 | 1012.5 |
| 20260904060053 | 71 | 163 | 4.0 | 8.0 | 0.00 | 0.44 | 0.00 | 84 | 1012.6 |
| 20260904055537 | 71 | 0 | 2.0 | 11.0 | 0.00 | 0.44 | 0.00 | 84 | 1012.7 |
| 20260904055041 | 71 | 225 | 2.0 | 11.0 | 0.00 | 0.44 | 0.00 | 84 | 1012.8 |
| 20260904054557 | 71 | 237 | 3.0 | 11.0 | 0.00 | 0.44 | 0.00 | 84 | 1012.9 |
| 20260904054038 | 71 | 246 | 2.0 | 11.0 | 0.00 | 0.44 | 0.00 | 84 | 1013.1 |
| 20260904053538 | 71 | 238 | 1.0 | 9.0 | 0.00 | 0.44 | 0.00 | 84 | 1013.2 |
| 20260904053101 | 70 | 192 | 2.0 | 9.0 | 0.00 | 0.44 | 0.00 | 85 | 1013.4 |
| 20260904052538 | 70 | 259 | 2.0 | 9.0 | 0.00 | 0.44 | 0.00 | 85 | 1013.4 |
| 20260904052038 | 70 | 0 | 2.0 | 9.0 | 0.00 | 0.44 | 0.00 | 87 | 1013.3 |
| 20260904051601 | 69 | 259 | 2.0 | 7.0 | 0.00 | 0.44 | 0.00 | 88 | 1013.3 |
| 20260904051040 | 69 | 267 | 1.0 | 4.0 | 0.00 | 0.44 | 0.00 | 89 | 1013.4 |
| 20260904050540 | 69 | 0 | 0.0 | 4.0 | 0.00 | 0.44 | 0.00 | 90 | 1013.4 |
| 20260904050051 | 69 | 90 | 1.0 | 3.0 | 0.00 | 0.44 | 0.00 | 90 | 1013.5 |
| 20260904045538 | 69 | 91 | 2.0 | 7.0 | 0.00 | 0.44 | 0.00 | 90 | 1013.6 |
| 20260904045040 | 69 | 91 | 0.0 | 7.0 | 0.00 | 0.44 | 0.00 | 89 | 1013.6 |
| 20260904044606 | 69 | 91 | 2.0 | 6.0 | 0.00 | 0.44 | 0.00 | 89 | 1013.6 |
| 20260904044037 | 70 | 123 | 1.0 | 3.0 | 0.00 | 0.44 | 0.00 | 88 | 1013.7 |
| 20260904043551 | 70 | 123 | 0.0 | 2.0 | 0.00 | 0.44 | 0.00 | 87 | 1013.7 |
| 20260904043057 | 70 | 0 | 0.0 | 2.0 | 0.00 | 0.44 | 0.00 | 86 | 1013.9 |
| 20260904042537 | 70 | 0 | 0.0 | 4.0 | 0.00 | 0.44 | 0.00 | 86 | 1013.9 |
| 20260904042038 | 71 | 0 | 1.0 | 8.0 | 0.00 | 0.44 | 0.00 | 85 | 1014.0 |
| 20260904041603 | 71 | 124 | 2.0 | 8.0 | 0.01 | 0.44 | 0.00 | 85 | 1013.9 |
| 20260904041042 | 71 | 328 | 2.0 | 8.0 | 0.01 | 0.44 | 0.00 | 83 | 1014.1 |
| 20260904040541 | 71 | 32 | 1.0 | 6.0 | 0.01 | 0.44 | 0.00 | 84 | 1014.3 |
| 20260904040110 | 72 | 213 | 1.0 | 8.0 | 0.01 | 0.44 | 0.00 | 83 | 1014.3 |
| 20260904035538 | 72 | 319 | 3.0 | 18.0 | 0.01 | 0.44 | 0.44 | 83 | 1014.3 |
| 20260904035037 | 72 | 265 | 3.0 | 18.0 | 0.01 | 0.44 | 0.44 | 83 | 1014.3 |
| 20260904034554 | 72 | 261 | 8.0 | 18.0 | 0.01 | 0.44 | 0.44 | 82 | 1014.3 |
| 20260904034044 | 72 | 245 | 10.0 | 25.0 | 0.01 | 0.44 | 0.44 | 81 | 1014.3 |
| 20260904033537 | 73 | 284 | 15.0 | 27.0 | 0.01 | 0.44 | 0.44 | 81 | 1014.6 |
| 20260904033049 | 73 | 293 | 17.0 | 27.0 | 0.01 | 0.44 | 0.44 | 80 | 1014.9 |
| 20260904032540 | 73 | 240 | 17.0 | 25.0 | 0.01 | 0.44 | 0.44 | 81 | 1015.0 |
| 20260904032037 | 73 | 296 | 14.0 | 25.0 | 0.01 | 0.44 | 0.44 | 80 | 1015.1 |
| 20260904031555 | 74 | 292 | 12.0 | 25.0 | 0.00 | 0.43 | 0.43 | 80 | 1015.4 |
| 20260904031040 | 74 | 300 | 15.0 | 26.0 | 0.00 | 0.43 | 0.43 | 80 | 1015.4 |
| 20260904030538 | 74 | 299 | 16.0 | 26.0 | 0.01 | 0.43 | 0.43 | 81 | 1015.4 |
| 20260904030053 | 74 | 273 | 15.0 | 24.0 | 0.01 | 0.43 | 0.43 | 81 | 1015.5 |
| 20260904025542 | 74 | 282 | 10.0 | 21.0 | 0.01 | 0.43 | 0.43 | 81 | 1015.6 |
| 20260904025044 | 74 | 276 | 12.0 | 21.0 | 0.01 | 0.43 | 0.43 | 82 | 1015.6 |
| 20260904024555 | 75 | 294 | 13.0 | 21.0 | 0.01 | 0.43 | 0.43 | 82 | 1015.7 |
| 20260904024041 | 75 | 295 | 12.0 | 18.0 | 0.01 | 0.43 | 0.43 | 81 | 1015.7 |
| 20260904023540 | 76 | 286 | 10.0 | 18.0 | 0.01 | 0.43 | 0.43 | 79 | 1015.7 |
| 20260904023057 | 75 | 249 | 6.0 | 11.0 | 0.01 | 0.43 | 0.43 | 79 | 1015.5 |
| 20260904022538 | 75 | 281 | 3.0 | 10.0 | 0.01 | 0.43 | 0.43 | 80 | 1015.3 |
| 20260904022040 | 76 | 281 | 6.0 | 10.0 | 0.01 | 0.43 | 0.43 | 80 | 1015.0 |
| 20260904021603 | 76 | 235 | 3.0 | 10.0 | 0.01 | 0.43 | 0.43 | 80 | 1014.6 |
| 20260904021040 | 77 | 282 | 2.0 | 17.0 | 0.01 | 0.43 | 0.43 | 80 | 1014.6 |
| 20260904020537 | 77 | 239 | 7.0 | 17.0 | 0.00 | 0.42 | 0.42 | 79 | 1014.5 |
| 20260904015537 | 77 | 248 | 9.0 | 15.0 | 0.00 | 0.42 | 0.42 | 87 | 1015.0 |
| 20260904015037 | 76 | 264 | 4.0 | 10.0 | 0.00 | 0.42 | 0.42 | 92 | 1014.7 |
| 20260904014639 | 75 | 303 | 6.0 | 10.0 | 0.00 | 0.42 | 0.42 | 93 | 1014.6 |
| 20260904014037 | 75 | 317 | 0.0 | 4.0 | 0.00 | 0.42 | 0.42 | 92 | 1014.6 |
| 20260904013542 | 75 | 0 | 0.0 | 2.0 | 0.00 | 0.42 | 0.42 | 93 | 1014.3 |
| 20260904013054 | 75 | 320 | 0.0 | 2.0 | 0.00 | 0.42 | 0.42 | 92 | 1014.4 |
| 20260904012541 | 75 | 0 | 0.0 | 2.0 | 0.00 | 0.42 | 0.42 | 92 | 1014.3 |
| 20260904012038 | 75 | 0 | 0.0 | 2.0 | 0.00 | 0.42 | 0.42 | 92 | 1014.3 |
| 20260904011628 | 75 | 0 | 0.0 | 2.0 | 0.00 | 0.42 | 0.42 | 93 | 1014.1 |
| 20260904011038 | 75 | 320 | 1.0 | 3.0 | 0.00 | 0.42 | 0.42 | 93 | 1014.0 |
| 20260904010538 | 75 | 0 | 0.0 | 4.0 | 0.00 | 0.42 | 0.42 | 93 | 1013.8 |
| 20260904010108 | 75 | 0 | 2.0 | 4.0 | 0.00 | 0.42 | 0.42 | 93 | 1013.8 |
| 20260904005537 | 75 | 319 | 1.0 | 5.0 | 0.00 | 0.42 | 0.42 | 93 | 1013.9 |
| 20260904005041 | 75 | 319 | 3.0 | 5.0 | 0.00 | 0.42 | 0.42 | 93 | 1014.0 |
| 20260904004600 | 75 | 317 | 2.0 | 4.0 | 0.00 | 0.42 | 0.42 | 92 | 1014.1 |
| 20260904004037 | 75 | 240 | 0.0 | 3.0 | 0.00 | 0.42 | 0.42 | 93 | 1014.0 |
| 20260904003537 | 76 | 0 | 0.0 | 1.0 | 0.00 | 0.42 | 0.42 | 92 | 1014.0 |
| 20260904003102 | 76 | 0 | 0.0 | 0.0 | 0.00 | 0.42 | 0.42 | 92 | 1014.1 |
| 20260904002540 | 76 | 0 | 0.0 | 0.0 | 0.00 | 0.42 | 0.42 | 92 | 1014.2 |
| 20260904002038 | 76 | 0 | 0.0 | 0.0 | 0.00 | 0.42 | 0.42 | 92 | 1014.2 |
| 20260904001551 | 76 | 0 | 0.0 | 0.0 | 0.00 | 0.42 | 0.42 | 92 | 1014.3 |
| 20260904001041 | 76 | 0 | 0.0 | 0.0 | 0.00 | 0.42 | 0.42 | 92 | 1014.3 |
| 20260904000544 | 76 | 0 | 0.0 | 0.0 | 0.00 | 0.42 | 0.42 | 91 | 1014.4 |
| 20260904000051 | 76 | 0 | 0.0 | 1.0 | 0.00 | 0.42 | 0.42 | 91 | 1014.5 |
| 20260903235539 | 76 | 0 | 0.0 | 3.0 | 0.00 | 0.42 | 0.42 | 90 | 1014.6 |
| 20260903235037 | 77 | 0 | 0.0 | 3.0 | 0.00 | 0.42 | 0.42 | 90 | 1014.8 |
| 20260903234559 | 77 | 239 | 1.0 | 2.0 | 0.00 | 0.42 | 0.42 | 89 | 1015.0 |
| 20260903234040 | 77 | 239 | 1.0 | 2.0 | 0.00 | 0.42 | 0.42 | 88 | 1014.9 |
| 20260903233538 | 78 | 0 | 0.0 | 3.0 | 0.00 | 0.42 | 0.42 | 88 | 1014.7 |
| 20260903233111 | 78 | 239 | 0.0 | 4.0 | 0.00 | 0.42 | 0.42 | 89 | 1014.5 |
| 20260903232541 | 78 | 239 | 2.0 | 4.0 | 0.00 | 0.42 | 0.42 | 89 | 1014.3 |
| 20260903232037 | 78 | 239 | 1.0 | 4.0 | 0.00 | 0.42 | 0.42 | 88 | 1014.1 |
| 20260903231555 | 79 | 0 | 0.0 | 0.0 | 0.00 | 0.42 | 0.42 | 87 | 1013.8 |
| 20260903231037 | 79 | 0 | 0.0 | 0.0 | 0.00 | 0.42 | 0.42 | 87 | 1013.6 |
| 20260903230541 | 80 | 0 | 0.0 | 2.0 | 0.00 | 0.42 | 0.42 | 86 | 1013.8 |
| 20260903230056 | 80 | 0 | 0.0 | 2.0 | 0.00 | 0.42 | 0.42 | 86 | 1014.0 |
| 20260903225540 | 81 | 0 | 1.0 | 3.0 | 0.00 | 0.42 | 0.42 | 85 | 1013.9 |
| 20260903225038 | 82 | 202 | 1.0 | 3.0 | 0.00 | 0.42 | 0.42 | 84 | 1013.9 |
| 20260903224600 | 82 | 202 | 1.0 | 3.0 | 0.00 | 0.42 | 0.42 | 83 | 1013.9 |
| 20260903224040 | 83 | 0 | 0.0 | 0.0 | 0.00 | 0.42 | 0.42 | 81 | 1013.7 |
| 20260903223541 | 84 | 0 | 0.0 | 4.0 | 0.00 | 0.42 | 0.42 | 78 | 1013.9 |
| 20260903223113 | 84 | 0 | 0.0 | 4.0 | 0.00 | 0.42 | 0.42 | 76 | 1013.9 |
| 20260903222541 | 84 | 180 | 0.0 | 3.0 | 0.00 | 0.42 | 0.42 | 75 | 1013.9 |
| 20260903222041 | 85 | 0 | 1.0 | 3.0 | 0.00 | 0.42 | 0.42 | 75 | 1013.7 |
| 20260903221556 | 85 | 181 | 0.0 | 5.0 | 0.00 | 0.42 | 0.42 | 74 | 1013.8 |
| 20260903221038 | 85 | 177 | 0.0 | 6.0 | 0.00 | 0.42 | 0.42 | 74 | 1013.8 |
| 20260903220541 | 85 | 155 | 2.0 | 6.0 | 0.00 | 0.42 | 0.42 | 72 | 1013.9 |
| 20260903220120 | 86 | 157 | 0.0 | 5.0 | 0.00 | 0.42 | 0.42 | 72 | 1013.8 |
| 20260903215540 | 86 | 0 | 0.0 | 4.0 | 0.00 | 0.42 | 0.42 | 75 | 1013.7 |
| 20260903215040 | 85 | 0 | 0.0 | 5.0 | 0.00 | 0.42 | 0.42 | 73 | 1013.7 |
| 20260903214550 | 86 | 0 | 2.0 | 5.0 | 0.00 | 0.42 | 0.42 | 75 | 1013.7 |
| 20260903214040 | 85 | 175 | 1.0 | 6.0 | 0.00 | 0.42 | 0.42 | 73 | 1013.8 |
| 20260903213540 | 85 | 167 | 1.0 | 7.0 | 0.00 | 0.42 | 0.42 | 73 | 1013.8 |
| 20260903213056 | 85 | 169 | 3.0 | 7.0 | 0.00 | 0.42 | 0.42 | 72 | 1013.8 |
| 20260903212543 | 85 | 171 | 3.0 | 7.0 | 0.00 | 0.42 | 0.42 | 72 | 1013.9 |
| 20260903212040 | 85 | 155 | 2.0 | 7.0 | 0.00 | 0.42 | 0.42 | 72 | 1013.9 |
| 20260903211555 | 86 | 188 | 2.0 | 6.0 | 0.00 | 0.42 | 0.42 | 71 | 1013.8 |
| 20260903211040 | 86 | 165 | 3.0 | 6.0 | 0.00 | 0.42 | 0.42 | 73 | 1013.8 |
| 20260903210541 | 86 | 156 | 2.0 | 6.0 | 0.00 | 0.42 | 0.42 | 71 | 1013.9 |
| 20260903210058 | 86 | 145 | 2.0 | 6.0 | 0.00 | 0.42 | 0.42 | 71 | 1013.8 |
| 20260903205538 | 86 | 0 | 0.0 | 4.0 | 0.00 | 0.42 | 0.42 | 71 | 1013.8 |
| 20260903205040 | 86 | 0 | 0.0 | 10.0 | 0.00 | 0.42 | 0.42 | 71 | 1013.9 |
| 20260903204547 | 86 | 189 | 4.0 | 10.0 | 0.00 | 0.42 | 0.42 | 71 | 1013.9 |